TAR999 DTTA-DTTJ

Flight info

Callsign TAR999
Flight time 0h 37m
Altitude 25000
Route GIBLI2A GIBLI A411 MON UA411 ELJEM A411 SFX UA411 JBA
Aircraft A320/M-SDE3FGHIRWY/LB1

Departure

Time 2026-04-24 15:36
Airport Tunis Carthage International Airport (DTTA)

Arrival

Time 2026-04-24 16:14
Airport Djerba Zarzis International Airport (DTTJ)
Time Latitude Longitude Altitude Speed Heading
2026-04-24 15:28 36.84530 10.21952 30 ft 0 kts 356°
2026-04-24 15:32 36.84526 10.21952 30 ft 3 kts 356°
2026-04-24 15:33 36.84440 10.21932 30 ft 0 kts 86°
2026-04-24 15:34 36.84350 10.21960 30 ft 24 kts 194°
2026-04-24 15:35 36.83895 10.21957 30 ft 25 kts 108°
2026-04-24 15:35 36.83956 10.22360 31 ft 25 kts 39°
2026-04-24 15:35 36.84181 10.22450 31 ft 61 kts 13°
2026-04-24 15:36 36.84815 10.22621 33 ft 125 kts 12°
2026-04-24 15:36 36.86869 10.23213 987 ft 157 kts 18°
2026-04-24 15:36 36.87935 10.23499 1724 ft 157 kts 18°
2026-04-24 15:37 36.89060 10.23803 2186 ft 176 kts 15°
2026-04-24 15:37 36.90331 10.24161 2544 ft 199 kts 17°
2026-04-24 15:37 36.91755 10.24564 2905 ft 221 kts 15°
2026-04-24 15:37 36.93320 10.25023 3363 ft 242 kts 16°
2026-04-24 15:38 36.95027 10.25538 3962 ft 260 kts 16°
2026-04-24 15:38 36.96792 10.26144 4881 ft 266 kts 18°
2026-04-24 15:38 36.98380 10.27338 5794 ft 272 kts 43°
2026-04-24 15:38 36.99376 10.29360 6754 ft 279 kts 70°
2026-04-24 15:39 36.99544 10.31793 7635 ft 288 kts 97°
2026-04-24 15:39 36.99096 10.34248 8527 ft 292 kts 103°
2026-04-24 15:39 36.98557 10.36720 9416 ft 296 kts 103°
2026-04-24 15:39 36.98011 10.39215 10279 ft 300 kts 104°
2026-04-24 15:40 36.97445 10.41833 10607 ft 324 kts 103°
2026-04-24 15:40 36.96488 10.44465 11016 ft 343 kts 125°
2026-04-24 15:40 36.94736 10.46527 11684 ft 352 kts 148°
2026-04-24 15:40 36.92474 10.47742 12441 ft 357 kts 162°
2026-04-24 15:41 36.90092 10.48671 13239 ft 360 kts 163°
2026-04-24 15:41 36.87683 10.49583 14008 ft 364 kts 163°
2026-04-24 15:41 36.85243 10.50506 14663 ft 368 kts 163°
2026-04-24 15:41 36.82753 10.51278 15363 ft 370 kts 173°
2026-04-24 15:42 36.80189 10.51696 16040 ft 374 kts 174°
2026-04-24 15:42 36.77598 10.52102 16745 ft 376 kts 174°
2026-04-24 15:42 36.74990 10.52502 17436 ft 379 kts 174°
2026-04-24 15:42 36.72358 10.52904 18089 ft 383 kts 174°
2026-04-24 15:43 36.69700 10.53309 18703 ft 387 kts 174°
2026-04-24 15:43 36.67016 10.53722 19277 ft 390 kts 174°
2026-04-24 15:43 36.64311 10.54142 19855 ft 394 kts 174°
2026-04-24 15:43 36.61583 10.54567 20434 ft 397 kts 174°
2026-04-24 15:44 36.58832 10.54995 21004 ft 400 kts 174°
2026-04-24 15:44 36.56058 10.55428 21568 ft 404 kts 174°
2026-04-24 15:44 36.53294 10.55859 22128 ft 407 kts 174°
2026-04-24 15:44 36.50469 10.56297 22666 ft 411 kts 174°
2026-04-24 15:45 36.47612 10.56740 23199 ft 416 kts 174°
2026-04-24 15:45 36.44698 10.57191 23370 ft 429 kts 174°
2026-04-24 15:45 36.41696 10.57653 23519 ft 441 kts 174°
2026-04-24 15:45 36.38618 10.58130 23661 ft 451 kts 174°
2026-04-24 15:46 36.35475 10.58622 23787 ft 459 kts 174°
2026-04-24 15:46 36.32277 10.59122 23907 ft 467 kts 174°
2026-04-24 15:46 36.29035 10.59625 24106 ft 472 kts 174°
2026-04-24 15:46 36.25766 10.60129 24350 ft 475 kts 174°
2026-04-24 15:47 36.22477 10.60632 24588 ft 478 kts 174°
2026-04-24 15:47 36.19167 10.61136 24832 ft 481 kts 174°
2026-04-24 15:47 36.15842 10.61644 25041 ft 482 kts 174°
2026-04-24 15:47 36.12500 10.62161 25107 ft 488 kts 174°
2026-04-24 15:48 36.09115 10.62688 25109 ft 492 kts 174°
2026-04-24 15:48 36.05716 10.63219 25112 ft 493 kts 174°
2026-04-24 15:48 36.02316 10.63747 25107 ft 493 kts 175°
2026-04-24 15:48 35.98900 10.64276 25111 ft 495 kts 175°
2026-04-24 15:49 35.95481 10.64802 25111 ft 495 kts 175°
2026-04-24 15:49 35.92059 10.65326 25109 ft 496 kts 175°
2026-04-24 15:49 35.88636 10.65852 25109 ft 496 kts 175°
2026-04-24 15:49 35.85210 10.66376 25109 ft 496 kts 175°
2026-04-24 15:50 35.81783 10.66897 25107 ft 496 kts 175°
2026-04-24 15:50 35.78363 10.67417 25107 ft 496 kts 175°
2026-04-24 15:50 35.74935 10.67939 25087 ft 497 kts 175°
2026-04-24 15:50 35.71495 10.68465 25083 ft 498 kts 175°
2026-04-24 15:51 35.68075 10.68985 25097 ft 487 kts 175°
2026-04-24 15:51 35.64796 10.69487 25109 ft 464 kts 175°
2026-04-24 15:51 35.61568 10.69979 25108 ft 473 kts 175°
2026-04-24 15:51 35.58261 10.70475 25112 ft 484 kts 175°
2026-04-24 15:52 35.54880 10.70977 25103 ft 494 kts 175°
2026-04-24 15:52 35.51444 10.71490 25101 ft 500 kts 175°
2026-04-24 15:52 35.47986 10.72013 25101 ft 502 kts 175°
2026-04-24 15:52 35.44520 10.72545 25105 ft 502 kts 175°
2026-04-24 15:53 35.41087 10.72839 25096 ft 499 kts 182°
2026-04-24 15:53 35.37624 10.72690 25111 ft 499 kts 185°
2026-04-24 15:53 35.34154 10.72498 25098 ft 499 kts 185°
2026-04-24 15:53 35.30685 10.72303 25099 ft 499 kts 185°
2026-04-24 15:54 35.27217 10.72108 25086 ft 499 kts 186°
2026-04-24 15:54 35.23745 10.71920 25075 ft 500 kts 186°
2026-04-24 15:54 35.20271 10.71736 25076 ft 500 kts 186°
2026-04-24 15:54 35.16790 10.71554 25072 ft 501 kts 186°
2026-04-24 15:55 35.13312 10.71373 25080 ft 501 kts 186°
2026-04-24 15:55 35.09776 10.71187 25080 ft 501 kts 186°
2026-04-24 15:55 35.06293 10.71002 25084 ft 502 kts 186°
2026-04-24 15:55 35.02805 10.70814 25074 ft 502 kts 186°
2026-04-24 15:56 34.99316 10.70623 25087 ft 502 kts 186°
2026-04-24 15:56 34.95821 10.70431 24977 ft 504 kts 186°
2026-04-24 15:56 34.92310 10.70228 24733 ft 506 kts 186°
2026-04-24 15:56 34.88790 10.70007 24497 ft 507 kts 186°
2026-04-24 15:57 34.85316 10.69781 24268 ft 507 kts 186°
2026-04-24 15:57 34.81790 10.69546 24037 ft 508 kts 186°
2026-04-24 15:57 34.79408 10.69389 23882 ft 508 kts 186°
2026-04-24 15:57 34.74730 10.69088 23560 ft 509 kts 186°
2026-04-24 15:58 34.71191 10.68964 23277 ft 509 kts 181°
2026-04-24 15:58 34.67660 10.69282 23023 ft 508 kts 178°
2026-04-24 15:58 34.64148 10.69637 22745 ft 505 kts 178°
2026-04-24 15:58 34.60654 10.69989 22477 ft 503 kts 178°
2026-04-24 15:59 34.57174 10.70338 22223 ft 500 kts 178°
2026-04-24 15:59 34.53716 10.70677 21965 ft 497 kts 178°
2026-04-24 15:59 34.50229 10.71016 21695 ft 495 kts 178°
2026-04-24 15:59 34.46854 10.71346 21443 ft 493 kts 178°
2026-04-24 16:00 34.43440 10.71682 21229 ft 491 kts 178°
2026-04-24 16:00 34.40048 10.72018 20973 ft 488 kts 178°
2026-04-24 16:00 34.36626 10.72358 20728 ft 486 kts 177°
2026-04-24 16:00 34.33267 10.72693 20483 ft 483 kts 177°
2026-04-24 16:01 34.29975 10.73019 20236 ft 480 kts 177°
2026-04-24 16:01 34.26651 10.73347 19991 ft 478 kts 177°
2026-04-24 16:01 34.23387 10.73418 19140 ft 460 kts 187°
2026-04-24 16:01 34.20278 10.73143 18657 ft 434 kts 182°
2026-04-24 16:02 34.17362 10.73305 18487 ft 405 kts 176°
2026-04-24 16:02 34.14662 10.73734 18363 ft 378 kts 173°
2026-04-24 16:02 34.12138 10.74237 18031 ft 360 kts 172°
2026-04-24 16:02 34.09694 10.74613 17379 ft 349 kts 182°
2026-04-24 16:03 34.07344 10.74012 16265 ft 347 kts 210°
2026-04-24 16:03 34.05495 10.72205 15144 ft 344 kts 237°
2026-04-24 16:03 34.04383 10.69662 13948 ft 346 kts 252°
2026-04-24 16:03 34.03545 10.66898 12442 ft 356 kts 252°
2026-04-24 16:04 34.02475 10.64154 10892 ft 368 kts 243°
2026-04-24 16:04 34.01221 10.61448 9304 ft 371 kts 253°
2026-04-24 16:04 34.00650 10.58529 8721 ft 343 kts 263°
2026-04-24 16:04 34.00222 10.55826 8495 ft 314 kts 263°
2026-04-24 16:05 33.99405 10.51068 7841 ft 277 kts 263°
2026-04-24 16:05 33.99020 10.48814 7198 ft 274 kts 263°
2026-04-24 16:06 33.98320 10.44559 6476 ft 248 kts 263°
2026-04-24 16:06 33.97968 10.42553 5985 ft 243 kts 256°
2026-04-24 16:06 33.95900 10.39618 5726 ft 237 kts 205°
2026-04-24 16:07 33.94242 10.39225 5635 ft 258 kts 176°
2026-04-24 16:07 33.92526 10.39871 5416 ft 264 kts 145°
2026-04-24 16:07 33.90633 10.43431 4906 ft 255 kts 108°
2026-04-24 16:08 33.90020 10.45420 4641 ft 252 kts 108°
2026-04-24 16:08 33.88799 10.49340 4161 ft 247 kts 108°
2026-04-24 16:09 33.87620 10.53110 3687 ft 233 kts 109°
2026-04-24 16:09 33.87098 10.54901 3460 ft 227 kts 102°
2026-04-24 16:09 33.86986 10.56170 3240 ft 225 kts 89°
2026-04-24 16:09 33.87050 10.58609 2854 ft 214 kts 88°
2026-04-24 16:10 33.87177 10.63384 2103 ft 158 kts 88°
2026-04-24 16:11 33.87239 10.65763 1710 ft 132 kts 88°
2026-04-24 16:11 33.87269 10.66849 1534 ft 130 kts 88°
2026-04-24 16:11 33.87296 10.67934 1362 ft 130 kts 89°
2026-04-24 16:12 33.87342 10.69746 1071 ft 128 kts 89°
2026-04-24 16:12 33.87370 10.70820 897 ft 129 kts 88°
2026-04-24 16:12 33.87424 10.72946 562 ft 128 kts 88°
2026-04-24 16:13 33.87451 10.74012 395 ft 127 kts 86°
2026-04-24 16:13 33.87502 10.76150 55 ft 126 kts 85°
2026-04-24 16:14 33.87548 10.77742 23 ft 31 kts 90°
2026-04-24 16:14 33.87539 10.77988 22 ft 28 kts 91°
2026-04-24 16:14 33.87558 10.78459 18 ft 29 kts 85°
2026-04-24 16:15 33.87526 10.78586 21 ft 23 kts 152°
2026-04-24 16:15 33.87392 10.78337 27 ft 16 kts 269°
2026-04-24 16:16 33.87400 10.78068 26 ft 15 kts 272°
2026-04-24 16:16 33.87400 10.77967 26 ft 10 kts 269°
2026-04-24 16:17 33.87330 10.77921 27 ft 0 kts 177°